SL-8 DEB, 1335

Orbit data source: Space-Track

SL-8 DEB, 1335 is space debris in LEO originally from a launch on Mon, 15 Mar 1965 UTC launched from the Tyuratam Missile And Space Complex (TTMTR). Debris objects in space refer to the collection of defunct objects orbiting the Earth. Examples of debris include non-operational satellites, rocket bodies, and fragments generated from explosions, collisions, or faulty payload assembly.

Loading next visibility...
Identifier
1335, 1965-020E
Orbit
LEO
Country
Flag of CISCIS
Related business
Manufacturer
Unknown
Mission
Spacecraft
Bus & Motor
Unknown
Mass
Unknown
Launch date (UTC)
1965-03-15 (61 years ago)
Launch vehicle
Unknown
Launch site
Tyuratam Missile And Space Complex (TTMTR)
Object type
Payload
Rocket body
Debris
Shape & HBR
Unknown shape, 0.1 m
Radar Cross Section
Medium (>0.1 m² and <1 m²)

Expand to show TLE details & history
Last TLE update: 18 hours ago

TLE from 18 hours ago
0 SL-8 DEB
1 01335U 65020E   25310.55800723  .00001929  00000-0  58273-3 0  9995
2 01335  56.0750  13.3832 0531942 122.0584 243.3194 13.86591769979098
Epoch: 2025-11-06T13:23Z
TLE epoch observation values (Epoch: 2025-11-06T13:23:31.824Z)
Latitude
-0°
Longitude
126.48599°
Altitude
1,132.494 km
Speed
7.192 km/s
True Right ascension
00h 53m 31s
True Declination
0° 00' 00"
Sunlit
Object was in full shadow at epoch
Visualization orbit readout
Latitude
Unknown
Longitude
Unknown
Altitude
Unknown
Speed
Unknown
Apparent Right ascension
Unknown
Apparent Declination
Unknown
Sunlit
N/A
Visualization observer readout
Local Sidereal Time
03:21:28
Azimuth
Unknown
Elevation
Unknown
Doppler factor
Unknown
Orbital elements
Apogee altitude
1,329.71 km
Perigee altitude
551.102 km
Semi-major axis
7,318.543 km
Eccentricity
0.05319
Inclination
56.075°
RAAN
13.3832°
Arg. of periapsis
122.0584°
True anomaly
238.03837°
Mean anomaly
243.3194°
Eccentric anomaly
240.66248°
Mean motion
3.46662 °/min
Orbital period
103.85 mins
BSTAR
0.00058273
Loading maneuver chart data...
Computing Atmospheric mass density...
Loading historical data...
Loading historical data...
Loading historical data...
Loading historical data...
Loading historical data...
Loading historical data...
Loading historical data...

Documentation

Showing up to 5 results
|